Location: Bletchingley
(51.2333°N, 0.1000°W)
Time: 01:47:02
(UTC+00:00)

Cosmos 2026 Rocket - Pass Details

Date: 18 September 2020
Orbit: 940 x 1000 km, 82.9° (Epoch: 30 October)

Event Time Altitude Azimuth Distance (km) Brightness Sun altitude
Rises 19:54:50 0° 352° (N) 3,713 7.5 -17.1°
Reaches altitude 10° 19:57:26 10° 357° (N) 2,768 6.7 -17.5°
Maximum altitude 20:03:40 55° 74° (ENE) 1,189 4.2 -18.4°
Enters shadow 20:06:55 28° 140° (SE) 1,767 4.8 -18.8°
